M I D A S
Marine Information and Data Acquisition System
Tripno 1058 of the Zeeleeuw from 2006-03-29 06:38:57 to 2006-03-29 13:25:43
Back to CruiseResearch ActivitiesStationsMapUnderway DataData graphs

EquipmentUnitsComment
TimeDGPSUTC
LatitudeDGPSDM.mWGS84
LongitudeDGPSDM.mWGS84
HeadingGyrodeg 
SOGDGPSknotsSpeed over ground
COGDGPSdegCourse over ground
DepthEcho soundermeters200 kHz
Missing or incorrect values are displayed as -999
Navigation data collected by the RV Zeeleeuw from 2006-03-29 06:39:03 to 2006-03-29 13:39:00
                                                                                    Next 1000 lines
Time Latitude Longitude Heading SOG COG Depth
2006-03-29 06:39:12 51°13.598 2°56.092 113.1 0.6 292 6.4
2006-03-29 06:39:18 51°13.599 2°56.089 113.1 0.8 297 6.5
2006-03-29 06:39:22 51°13.599 2°56.088 113.1 1.1 294 -999
2006-03-29 06:39:28 51°13.6 2°56.085 113.1 1.2 296 6.5
2006-03-29 06:39:32 51°13.601 2°56.082 113.1 1.4 296 6.6
2006-03-29 06:39:37 51°13.602 2°56.079 113.1 1.4 297 -999
2006-03-29 06:39:43 51°13.603 2°56.075 112.6 1.7 295 -999
2006-03-29 06:39:48 51°13.605 2°56.07 112.4 2.1 294 -999
2006-03-29 06:39:53 51°13.606 2°56.066 112.3 2.4 293 -999
2006-03-29 06:39:58 51°13.607 2°56.06 112.3 2.6 293 -999
2006-03-29 06:40:03 51°13.609 2°56.054 112.3 2.8 292 -999
2006-03-29 06:40:08 51°13.61 2°56.047 112.5 3.2 291 -999
2006-03-29 06:40:12 51°13.612 2°56.041 112.6 3.2 291 -999
2006-03-29 06:40:18 51°13.614 2°56.032 113.2 3.6 291 -999
2006-03-29 06:40:23 51°13.616 2°56.024 114 3.7 291 -999
2006-03-29 06:40:28 51°13.618 2°56.016 114.6 3.9 292 -999
2006-03-29 06:40:33 51°13.62 2°56.008 115.4 4 292 -999
2006-03-29 06:40:38 51°13.622 2°55.999 116 4.2 292 -999
2006-03-29 06:40:43 51°13.625 2°55.99 116.9 4.3 292 -999
2006-03-29 06:40:48 51°13.627 2°55.981 117.8 4.5 294 -999
2006-03-29 06:40:53 51°13.63 2°55.971 119 4.7 295 -999
2006-03-29 06:40:58 51°13.633 2°55.962 120.3 4.9 297 -999
2006-03-29 06:41:03 51°13.636 2°55.952 121.8 5 298 -999
2006-03-29 06:41:08 51°13.64 2°55.942 122.6 5.1 299 -999
2006-03-29 06:41:12 51°13.643 2°55.934 123.7 5.1 300 -999
2006-03-29 06:41:18 51°13.647 2°55.922 124.6 5.2 301 -999
2006-03-29 06:41:23 51°13.652 2°55.912 125.4 5.3 302 -999
2006-03-29 06:41:28 51°13.656 2°55.902 126.2 5.4 303 -999
2006-03-29 06:41:33 51°13.66 2°55.892 127 5.5 304 -999
2006-03-29 06:41:38 51°13.664 2°55.882 127.3 5.5 304 -999
2006-03-29 06:41:43 51°13.668 2°55.872 127.1 5.2 304 -999
2006-03-29 06:41:48 51°13.672 2°55.864 126.8 4.9 304 -999
2006-03-29 06:41:52 51°13.674 2°55.857 126.2 4.7 304 -999
2006-03-29 06:41:58 51°13.678 2°55.848 125.6 4.4 303 -999
2006-03-29 06:42:03 51°13.681 2°55.84 124.8 4.2 303 -999
2006-03-29 06:42:08 51°13.684 2°55.833 123.7 4.2 303 -999
2006-03-29 06:42:13 51°13.687 2°55.825 122.8 4 302 5.1
2006-03-29 06:42:18 51°13.69 2°55.817 121.5 4 300 -999
2006-03-29 06:42:23 51°13.692 2°55.81 120 4 299 4.8
2006-03-29 06:42:28 51°13.695 2°55.802 117.9 3.9 298 -999
2006-03-29 06:42:33 51°13.698 2°55.794 116.1 3.9 297 -999
2006-03-29 06:42:38 51°13.7 2°55.787 114.1 3.8 295 -999
2006-03-29 06:42:43 51°13.701 2°55.78 111.8 3.5 293 -999
2006-03-29 06:42:48 51°13.703 2°55.773 110.5 3.4 293 -999
2006-03-29 06:42:53 51°13.705 2°55.767 108.9 3.3 291 -999
2006-03-29 06:42:58 51°13.706 2°55.761 107.5 2.8 290 -999
2006-03-29 06:43:03 51°13.707 2°55.756 105.4 2.6 289 -999
2006-03-29 06:43:08 51°13.708 2°55.751 103.9 2.3 288 -999
2006-03-29 06:43:12 51°13.709 2°55.748 102.3 2 288 -999
2006-03-29 06:43:18 51°13.71 2°55.744 100.9 1.9 288 -999
2006-03-29 06:43:23 51°13.71 2°55.742 98.9 1.3 289 -999
2006-03-29 06:43:28 51°13.711 2°55.74 96.2 0.8 298 -999
2006-03-29 06:43:33 51°13.711 2°55.74 92.6 0.4 328 4.6
2006-03-29 06:43:38 51°13.712 2°55.741 89.2 0.4 349 -999
2006-03-29 06:43:43 51°13.713 2°55.742 84.5 0.7 41 -999
2006-03-29 06:43:48 51°13.713 2°55.744 78.3 1 49 -999
2006-03-29 06:43:53 51°13.715 2°55.746 71.7 1.3 49 -999
2006-03-29 06:43:58 51°13.716 2°55.748 67 1.5 49 -999
2006-03-29 06:44:03 51°13.718 2°55.751 61.4 1.5 48 -999
2006-03-29 06:44:08 51°13.719 2°55.752 56.9 1.4 40 -999
2006-03-29 06:44:12 51°13.72 2°55.753 53.5 1.1 34 -999
2006-03-29 06:44:18 51°13.721 2°55.754 51.2 0.8 27 -999
2006-03-29 06:44:23 51°13.722 2°55.754 48.2 0.6 14 -999
2006-03-29 06:44:28 51°13.723 2°55.754 45.5 0.4 351 -999
2006-03-29 06:44:32 51°13.723 2°55.754 43.3 0.3 327 -999
2006-03-29 06:44:38 51°13.723 2°55.752 41.3 0.5 261 -999
2006-03-29 06:44:43 51°13.722 2°55.751 39.6 0.7 238 -999
2006-03-29 06:44:48 51°13.721 2°55.749 37.9 1 232 -999
2006-03-29 06:44:53 51°13.72 2°55.747 36 1.1 228 -999
2006-03-29 06:44:58 51°13.718 2°55.745 33.7 1.5 221 -999
2006-03-29 06:45:03 51°13.716 2°55.743 32.1 1.5 218 -999
2006-03-29 06:45:08 51°13.715 2°55.741 30.4 1.4 216 -999
2006-03-29 06:45:12 51°13.714 2°55.74 29 1.3 215 -999
2006-03-29 06:45:18 51°13.712 2°55.738 27.8 1.1 215 -999
2006-03-29 06:45:23 51°13.712 2°55.737 26.3 0.7 215 -999
2006-03-29 06:45:28 51°13.711 2°55.737 24.9 0.3 227 -999
2006-03-29 06:45:33 51°13.712 2°55.737 22.2 0.2 264 -999
2006-03-29 06:45:38 51°13.712 2°55.736 19 0.4 348 -999
2006-03-29 06:45:43 51°13.714 2°55.736 15.1 0.6 352 -999
2006-03-29 06:45:48 51°13.716 2°55.736 10.3 1.2 354 -999
2006-03-29 06:45:52 51°13.718 2°55.735 4.6 1.6 350 -999
2006-03-29 06:45:58 51°13.721 2°55.733 358.3 2 345 -999
2006-03-29 06:46:03 51°13.724 2°55.732 351.7 2.2 340 -999
2006-03-29 06:46:08 51°13.727 2°55.729 345 2.5 334 -999
2006-03-29 06:46:13 51°13.73 2°55.726 339.7 2.6 333 4.7
2006-03-29 06:46:17 51°13.733 2°55.723 336.7 2.9 329 -999
2006-03-29 06:46:23 51°13.738 2°55.719 333.8 3.2 328 -999
2006-03-29 06:46:28 51°13.742 2°55.714 332.6 3.4 326 -999
2006-03-29 06:46:32 51°13.745 2°55.71 331.9 3.7 326 -999
2006-03-29 06:46:38 51°13.751 2°55.705 331.9 3.9 325 -999
2006-03-29 06:46:43 51°13.756 2°55.7 332 4 327 -999
2006-03-29 06:46:48 51°13.761 2°55.694 332 4.3 326 -999
2006-03-29 06:46:53 51°13.766 2°55.689 332 4.4 327 -999
2006-03-29 06:46:58 51°13.772 2°55.683 332.2 4.7 327 -999
2006-03-29 06:47:03 51°13.778 2°55.677 332.4 4.8 327 -999
2006-03-29 06:47:08 51°13.784 2°55.671 332.8 5.3 329 -999
2006-03-29 06:47:13 51°13.791 2°55.665 333.4 5.6 330 -999
2006-03-29 06:47:18 51°13.799 2°55.658 334.1 5.9 330 -999
2006-03-29 06:47:23 51°13.806 2°55.652 334.9 6.2 331 -999
2006-03-29 06:47:28 51°13.814 2°55.645 335.6 6.4 331 -999
2006-03-29 06:47:33 51°13.823 2°55.638 336.1 6.7 332 -999
2006-03-29 06:47:38 51°13.831 2°55.631 336.6 6.9 333 -999
2006-03-29 06:47:43 51°13.84 2°55.624 337.1 7 333 -999
2006-03-29 06:47:48 51°13.849 2°55.617 337.7 7.2 334 -999
2006-03-29 06:47:53 51°13.858 2°55.609 338.2 7.4 334 -999
2006-03-29 06:47:58 51°13.868 2°55.602 338.3 7.5 334 -999
2006-03-29 06:48:03 51°13.877 2°55.595 338.3 7.6 334 -999
2006-03-29 06:48:08 51°13.887 2°55.588 338.8 7.7 335 -999
2006-03-29 06:48:13 51°13.897 2°55.581 339.6 7.8 336 -999
2006-03-29 06:48:18 51°13.907 2°55.574 340 7.8 336 -999
2006-03-29 06:48:23 51°13.917 2°55.566 340.4 7.9 336 -999
2006-03-29 06:48:28 51°13.927 2°55.559 340.3 8 336 -999
2006-03-29 06:48:32 51°13.935 2°55.553 340 8 335 -999
2006-03-29 06:48:38 51°13.948 2°55.545 340.2 8.1 336 7.8
2006-03-29 06:48:43 51°13.958 2°55.538 340.9 8.1 337 -999
2006-03-29 06:48:48 51°13.968 2°55.531 341.3 8.1 337 -999
2006-03-29 06:48:53 51°13.978 2°55.524 341.2 8.1 336 -999
2006-03-29 06:48:58 51°13.988 2°55.517 341.1 7.8 337 -999
2006-03-29 06:49:03 51°13.998 2°55.511 341.2 7.7 337 -999
2006-03-29 06:49:08 51°14.007 2°55.504 341.2 7.3 337 -999
2006-03-29 06:49:12 51°14.014 2°55.499 340.8 7.1 336 -999
2006-03-29 06:49:18 51°14.024 2°55.492 340.4 6.9 336 -999
2006-03-29 06:49:23 51°14.033 2°55.486 340.4 6.8 336 -999
2006-03-29 06:49:28 51°14.041 2°55.48 340.4 6.5 336 -999
2006-03-29 06:49:33 51°14.049 2°55.474 340 6.5 336 -999
2006-03-29 06:49:38 51°14.058 2°55.468 339.7 6.6 336 -999
2006-03-29 06:49:43 51°14.066 2°55.461 339.6 6.6 335 -999
2006-03-29 06:49:48 51°14.075 2°55.455 339.6 6.8 335 -999
2006-03-29 06:49:53 51°14.084 2°55.448 339.6 6.9 335 -999
2006-03-29 06:49:58 51°14.093 2°55.441 339.3 7.1 334 -999
2006-03-29 06:50:03 51°14.102 2°55.434 338.9 7.1 334 -999
2006-03-29 06:50:08 51°14.111 2°55.427 338.7 7.2 334 -999
2006-03-29 06:50:13 51°14.12 2°55.42 338.5 7.3 334 -999
2006-03-29 06:50:18 51°14.129 2°55.413 338.4 7.4 334 -999
2006-03-29 06:50:23 51°14.139 2°55.405 338.3 7.4 333 -999
2006-03-29 06:50:28 51°14.148 2°55.398 337.8 7.4 333 -999
2006-03-29 06:50:32 51°14.155 2°55.391 337.2 7.5 332 -999
2006-03-29 06:50:38 51°14.166 2°55.382 336.5 7.5 331 -999
2006-03-29 06:50:43 51°14.175 2°55.374 335.8 7.5 331 -999
2006-03-29 06:50:48 51°14.184 2°55.365 334.6 7.5 329 -999
2006-03-29 06:50:53 51°14.193 2°55.356 333.1 7.5 328 -999
2006-03-29 06:50:58 51°14.202 2°55.346 331 7.6 326 -999
2006-03-29 06:51:03 51°14.21 2°55.337 329.4 7.6 324 -999
2006-03-29 06:51:08 51°14.218 2°55.326 328.1 7.6 323 -999
2006-03-29 06:51:13 51°14.226 2°55.316 326.6 7.6 322 -999
2006-03-29 06:51:18 51°14.234 2°55.305 325.1 7.6 320 -999
2006-03-29 06:51:23 51°14.242 2°55.293 323.2 7.6 319 -999
2006-03-29 06:51:28 51°14.25 2°55.282 321.8 7.6 317 -999
2006-03-29 06:51:32 51°14.255 2°55.272 320.6 7.6 317 -999
2006-03-29 06:51:38 51°14.264 2°55.258 318.9 7.6 314 -999
2006-03-29 06:51:43 51°14.271 2°55.245 317.4 7.6 313 -999
2006-03-29 06:51:48 51°14.278 2°55.233 315.9 7.6 312 -999
2006-03-29 06:51:53 51°14.285 2°55.22 314.6 7.6 310 -999
2006-03-29 06:51:58 51°14.291 2°55.206 314 7.6 310 -999
2006-03-29 06:52:03 51°14.298 2°55.194 313.9 7.6 310 -999
2006-03-29 06:52:08 51°14.305 2°55.181 313.6 7.6 310 -999
2006-03-29 06:52:12 51°14.31 2°55.17 313.5 7.6 310 -999
2006-03-29 06:52:18 51°14.318 2°55.155 313.6 7.7 310 -999
2006-03-29 06:52:23 51°14.325 2°55.142 314.1 7.6 310 -999
2006-03-29 06:52:28 51°14.332 2°55.129 314.7 7.6 311 -999
2006-03-29 06:52:33 51°14.339 2°55.117 315.3 7.6 312 -999
2006-03-29 06:52:38 51°14.346 2°55.104 315.8 7.6 313 -999
2006-03-29 06:52:43 51°14.354 2°55.092 316.4 7.7 313 8.5
2006-03-29 06:52:48 51°14.361 2°55.08 317.1 7.6 314 -999
2006-03-29 06:52:52 51°14.367 2°55.07 317.4 7.6 315 8.5
2006-03-29 06:52:58 51°14.377 2°55.056 318.2 7.6 315 8.5
2006-03-29 06:53:02 51°14.383 2°55.047 319.7 8 318 8.5
2006-03-29 06:53:07 51°14.392 2°55.035 321.5 8.1 319 8.5
2006-03-29 06:53:13 51°14.403 2°55.021 324.5 8.3 321 8.6
2006-03-29 06:53:18 51°14.413 2°55.009 325.6 8.6 321 8.4
2006-03-29 06:53:23 51°14.423 2°54.996 326.4 8.6 321 8.5
2006-03-29 06:53:27 51°14.43 2°54.986 326.6 9.1 321 8.4
2006-03-29 06:53:33 51°14.443 2°54.969 326.5 9.6 319 8.3
2006-03-29 06:53:38 51°14.453 2°54.954 326 9.7 319 8.2
2006-03-29 06:53:43 51°14.464 2°54.939 325.4 10.3 318 8.2
2006-03-29 06:53:47 51°14.472 2°54.925 325.4 10.5 317 8
2006-03-29 06:53:52 51°14.483 2°54.909 325.2 10.7 317 8
2006-03-29 06:53:58 51°14.497 2°54.89 325.3 10.9 318 7.9
2006-03-29 06:54:03 51°14.509 2°54.874 326.6 10.9 318 7.9
2006-03-29 06:54:07 51°14.519 2°54.862 327.8 11.3 322 7.8
2006-03-29 06:54:13 51°14.535 2°54.845 330 11.4 326 7.7
2006-03-29 06:54:16 51°14.544 2°54.837 333.8 11.5 327 7.8
2006-03-29 06:54:23 51°14.564 2°54.82 336.8 11.5 327 7.7
2006-03-29 06:54:27 51°14.576 2°54.81 338.3 11.8 331 7.7
2006-03-29 06:54:32 51°14.591 2°54.798 340.4 11.9 332 7.7
2006-03-29 06:54:37 51°14.605 2°54.785 340.7 12 331 7.6
2006-03-29 06:54:43 51°14.622 2°54.769 340.7 12.1 331 7.6
2006-03-29 06:54:47 51°14.634 2°54.758 340 12.1 329 7.6
2006-03-29 06:54:52 51°14.648 2°54.743 338.5 12.1 328 7.7
2006-03-29 06:54:58 51°14.666 2°54.725 337.8 12.1 328 7.7
2006-03-29 06:55:03 51°14.679 2°54.71 336.3 12.2 326 7.5
2006-03-29 06:55:07 51°14.691 2°54.697 335 12.3 325 7.5
2006-03-29 06:55:12 51°14.705 2°54.681 334.6 12.3 325 5.6
2006-03-29 06:55:17 51°14.719 2°54.666 334.4 12.4 325 7.6
2006-03-29 06:55:22 51°14.733 2°54.65 334.4 12.5 325 7.7
2006-03-29 06:55:27 51°14.747 2°54.635 334.5 12.4 325 7.8
2006-03-29 06:55:32 51°14.762 2°54.619 334.8 12.4 326 7.6
2006-03-29 06:55:37 51°14.776 2°54.604 335.1 12.4 326 7.4
2006-03-29 06:55:43 51°14.793 2°54.586 335.7 12.4 326 7.4
2006-03-29 06:55:47 51°14.805 2°54.574 335.9 12.4 327 5.4
2006-03-29 06:55:52 51°14.819 2°54.559 335.8 12.4 327 5.5
2006-03-29 06:55:57 51°14.834 2°54.544 335.5 12.4 327 7.3
2006-03-29 06:56:03 51°14.851 2°54.526 335.7 12.3 326 7.2
2006-03-29 06:56:08 51°14.865 2°54.51 335.4 12.3 326 5.4
2006-03-29 06:56:12 51°14.876 2°54.498 334.8 12.3 326 7.5
2006-03-29 06:56:18 51°14.893 2°54.48 334.4 12.4 325 7.5
2006-03-29 06:56:23 51°14.908 2°54.464 334.1 12.5 326 7.3
2006-03-29 06:56:28 51°14.922 2°54.449 334 12.4 326 7.3
2006-03-29 06:56:33 51°14.936 2°54.434 333.8 12.4 326 7.2
2006-03-29 06:56:36 51°14.945 2°54.425 334.4 12.4 327 7.1
2006-03-29 06:56:42 51°14.962 2°54.407 334.9 12.3 328 7
2006-03-29 06:56:48 51°14.98 2°54.391 336 12.2 328 6.9
2006-03-29 06:56:52 51°14.991 2°54.381 337.5 12.1 330 6.8
2006-03-29 06:56:58 51°15.009 2°54.365 338.2 12 330 6.8
2006-03-29 06:57:03 51°15.023 2°54.351 338.6 12 329 6.8
2006-03-29 06:57:08 51°15.037 2°54.339 338.2 12 329 6.7
2006-03-29 06:57:12 51°15.049 2°54.328 339.6 11.9 331 6.8
2006-03-29 06:57:18 51°15.067 2°54.315 340.4 11.9 331 6.8
2006-03-29 06:57:22 51°15.079 2°54.306 341.9 11.9 334 6.7
2006-03-29 06:57:27 51°15.094 2°54.295 344 11.8 335 6.9
2006-03-29 06:57:33 51°15.112 2°54.282 345.1 11.9 336 7
2006-03-29 06:57:38 51°15.127 2°54.271 345.5 11.9 335 6.9
2006-03-29 06:57:43 51°15.142 2°54.259 345.6 12 335 7
2006-03-29 06:57:48 51°15.156 2°54.248 345.5 11.9 335 7
2006-03-29 06:57:52 51°15.168 2°54.238 344.7 12 333 7
2006-03-29 06:57:58 51°15.186 2°54.222 343.4 12.1 331 7.1
2006-03-29 06:58:03 51°15.2 2°54.206 342.1 12.2 328 7.1
2006-03-29 06:58:08 51°15.214 2°54.19 338.8 12.2 328 7.2
2006-03-29 06:58:12 51°15.225 2°54.176 336.3 12.4 323 7.2
2006-03-29 06:58:18 51°15.241 2°54.156 333.7 12.4 321 5.5
2006-03-29 06:58:23 51°15.254 2°54.138 332.5 12.5 321 7.3
2006-03-29 06:58:27 51°15.265 2°54.125 331.8 12.5 321 7.5
2006-03-29 06:58:32 51°15.279 2°54.108 331.7 12.5 321 7.5
2006-03-29 06:58:38 51°15.296 2°54.088 332.9 12.5 323 7.5
2006-03-29 06:58:43 51°15.31 2°54.073 334.3 12.6 325 7.5
2006-03-29 06:58:48 51°15.325 2°54.059 336.3 12.6 325 7.6
2006-03-29 06:58:52 51°15.337 2°54.049 339.4 12.4 331 7.7
2006-03-29 06:58:58 51°15.356 2°54.035 342.8 12.4 335 7.7
2006-03-29 06:59:03 51°15.372 2°54.025 345.2 12.3 336 7.9
2006-03-29 06:59:08 51°15.388 2°54.014 346.8 12.3 336 7.9
2006-03-29 06:59:12 51°15.4 2°54.005 347.6 12.4 337 8
2006-03-29 06:59:17 51°15.416 2°53.995 347.8 12.5 337 8
2006-03-29 06:59:22 51°15.432 2°53.983 347.5 12.4 336 8
2006-03-29 06:59:28 51°15.451 2°53.969 346.6 12.4 336 8.1
2006-03-29 06:59:33 51°15.467 2°53.956 345.7 12.5 335 8
2006-03-29 06:59:36 51°15.476 2°53.948 343.9 12.6 332 8.2
2006-03-29 06:59:42 51°15.494 2°53.931 342.8 12.6 331 8.3
2006-03-29 06:59:48 51°15.512 2°53.915 341.4 12.6 330 8.4
2006-03-29 06:59:52 51°15.524 2°53.903 340.7 12.6 330 8.5
2006-03-29 06:59:57 51°15.539 2°53.888 339.6 12.7 329 8.6
2006-03-29 07:00:02 51°15.555 2°53.874 338.9 12.8 329 8.6
2006-03-29 07:00:07 51°15.57 2°53.859 339.7 12.7 329 8.7
2006-03-29 07:00:13 51°15.588 2°53.843 339.6 12.8 329 8.7
2006-03-29 07:00:18 51°15.603 2°53.828 339.9 12.7 330 8.6
2006-03-29 07:00:23 51°15.619 2°53.814 339.9 12.7 330 8.7
2006-03-29 07:00:28 51°15.634 2°53.8 340.7 12.7 330 8.7
2006-03-29 07:00:32 51°15.646 2°53.79 340.4 12.6 330 8.7
2006-03-29 07:00:38 51°15.665 2°53.773 341.1 12.6 330 8.8
2006-03-29 07:00:43 51°15.68 2°53.759 341.4 12.6 331 8.9
2006-03-29 07:00:48 51°15.695 2°53.745 341.8 12.6 331 8.9
2006-03-29 07:00:52 51°15.707 2°53.734 341.2 12.6 330 8.9
2006-03-29 07:00:58 51°15.725 2°53.718 341.1 12.6 331 9
2006-03-29 07:01:03 51°15.741 2°53.704 341.6 12.7 331 9
2006-03-29 07:01:08 51°15.756 2°53.691 342 12.6 332 9.1
2006-03-29 07:01:12 51°15.768 2°53.681 342.6 12.6 332 9.2
2006-03-29 07:01:18 51°15.787 2°53.665 343.2 12.6 333 9.2
2006-03-29 07:01:23 51°15.803 2°53.653 344 12.5 333 9.3
2006-03-29 07:01:27 51°15.815 2°53.643 344.2 12.5 333 9.3
2006-03-29 07:01:32 51°15.831 2°53.631 343.9 12.5 333 9.3
2006-03-29 07:01:36 51°15.843 2°53.621 344.7 12.6 334 9.3
2006-03-29 07:01:43 51°15.865 2°53.604 344 12.5 334 9.4
2006-03-29 07:01:48 51°15.88 2°53.592 344.2 12.5 334 9.5
2006-03-29 07:01:52 51°15.893 2°53.582 344.6 12.5 334 9.4
2006-03-29 07:01:57 51°15.908 2°53.57 344.1 12.4 333 9.5
2006-03-29 07:02:02 51°15.923 2°53.557 343.5 12.4 332 9.6
2006-03-29 07:02:08 51°15.941 2°53.542 343.1 12.4 332 9.6
2006-03-29 07:02:13 51°15.957 2°53.529 342.9 12.4 333 9.7
2006-03-29 07:02:18 51°15.972 2°53.517 343 12.4 332 9.7
2006-03-29 07:02:22 51°15.984 2°53.506 343.3 12.3 332 9.7
2006-03-29 07:02:27 51°15.999 2°53.493 343 12.3 332 9.8
2006-03-29 07:02:33 51°16.017 2°53.478 342.6 12.4 331 9.8
2006-03-29 07:02:38 51°16.032 2°53.465 342.5 12.4 331 9.8
2006-03-29 07:02:43 51°16.047 2°53.451 342.3 12.3 331 9.9
2006-03-29 07:02:47 51°16.059 2°53.441 342.1 12.3 331 9.9
2006-03-29 07:02:52 51°16.074 2°53.428 342 12.3 331 10
2006-03-29 07:02:58 51°16.092 2°53.413 341.9 12.3 331 9.9
2006-03-29 07:03:03 51°16.108 2°53.4 342.4 12.4 332 10.1
2006-03-29 07:03:08 51°16.123 2°53.388 343 12.3 334 10.1
2006-03-29 07:03:13 51°16.138 2°53.375 343.4 12.4 332 10.1
2006-03-29 07:03:18 51°16.154 2°53.363 344 12.3 334 10.1
2006-03-29 07:03:23 51°16.169 2°53.351 344 12.4 333 10.2
2006-03-29 07:03:28 51°16.184 2°53.339 344.1 12.3 334 10.2
2006-03-29 07:03:32 51°16.197 2°53.329 344 12.4 332 10.2
2006-03-29 07:03:37 51°16.212 2°53.316 343.5 12.4 332 10.1
2006-03-29 07:03:43 51°16.23 2°53.3 342.6 12.4 331 10.2
2006-03-29 07:03:48 51°16.245 2°53.287 342.2 12.4 331 10.2
2006-03-29 07:03:52 51°16.257 2°53.276 341.5 12.5 331 10.2
2006-03-29 07:03:56 51°16.269 2°53.265 341.2 12.4 331 10.2
2006-03-29 07:04:02 51°16.287 2°53.249 341 12.4 330 10.2
2006-03-29 07:04:08 51°16.305 2°53.232 340.9 12.4 330 10.2
2006-03-29 07:04:12 51°16.317 2°53.221 340.8 12.4 330 10.2
2006-03-29 07:04:18 51°16.335 2°53.205 340.6 12.4 331 10.2
2006-03-29 07:04:23 51°16.35 2°53.192 341.2 12.4 331 10.3
2006-03-29 07:04:28 51°16.366 2°53.179 341.2 12.4 332 10.3
2006-03-29 07:04:33 51°16.381 2°53.166 341.7 12.5 332 10.3
2006-03-29 07:04:37 51°16.393 2°53.156 341.4 12.5 332 10.4
2006-03-29 07:04:42 51°16.408 2°53.142 341.3 12.5 332 10.3
2006-03-29 07:04:47 51°16.423 2°53.129 341.2 12.5 332 10.4
2006-03-29 07:04:52 51°16.439 2°53.116 341.1 12.5 331 10.4
2006-03-29 07:04:58 51°16.457 2°53.1 341.3 12.4 332 10.4
2006-03-29 07:05:03 51°16.473 2°53.088 341.3 12.4 332 10.4
2006-03-29 07:05:08 51°16.488 2°53.076 342 12.4 334 10.2
2006-03-29 07:05:12 51°16.501 2°53.067 342.6 12.4 334 10.3
2006-03-29 07:05:18 51°16.519 2°53.051 342.3 12.4 334 10.1
2006-03-29 07:05:23 51°16.535 2°53.039 342 12.4 333 10.2
2006-03-29 07:05:28 51°16.55 2°53.026 341.5 12.4 332 10.2
2006-03-29 07:05:33 51°16.565 2°53.013 341 12.4 331 10
2006-03-29 07:05:36 51°16.574 2°53.005 340.4 12.4 332 10.1
2006-03-29 07:05:42 51°16.592 2°52.989 340.1 12.4 332 10.1
2006-03-29 07:05:48 51°16.611 2°52.974 340.4 12.4 332 10
2006-03-29 07:05:52 51°16.623 2°52.964 341 12.3 333 10
2006-03-29 07:05:57 51°16.638 2°52.953 341.2 12.3 334 10
2006-03-29 07:06:02 51°16.653 2°52.941 341.7 12.3 334 9.9
2006-03-29 07:06:08 51°16.672 2°52.926 342.1 12.2 334 9.8
2006-03-29 07:06:13 51°16.687 2°52.915 342.4 12.2 334 9.6
2006-03-29 07:06:18 51°16.702 2°52.903 342.4 12.2 335 9.6
2006-03-29 07:06:23 51°16.717 2°52.891 342 12.2 334 9.5
2006-03-29 07:06:28 51°16.732 2°52.878 341.8 12.2 333 9.3
2006-03-29 07:06:32 51°16.745 2°52.869 341 12.1 333 9.2
2006-03-29 07:06:38 51°16.762 2°52.854 340.7 12.1 333 8.9
2006-03-29 07:06:42 51°16.774 2°52.844 340.4 12 332 8.5
2006-03-29 07:06:47 51°16.788 2°52.831 340.2 11.9 332 8.2
2006-03-29 07:06:52 51°16.803 2°52.819 340.4 11.9 332 8
2006-03-29 07:06:57 51°16.817 2°52.806 340 11.7 331 8
2006-03-29 07:07:03 51°16.834 2°52.791 339.5 11.7 331 7.9
2006-03-29 07:07:07 51°16.846 2°52.781 339.4 11.7 331 7.8
2006-03-29 07:07:12 51°16.86 2°52.768 339 11.7 331 7.7
2006-03-29 07:07:18 51°16.877 2°52.753 339.6 11.7 330 7.7
2006-03-29 07:07:23 51°16.891 2°52.74 339.2 11.8 331 7.7
2006-03-29 07:07:28 51°16.905 2°52.727 338.9 11.8 331 7.8
2006-03-29 07:07:33 51°16.92 2°52.714 338.6 11.8 331 7.9
2006-03-29 07:07:38 51°16.934 2°52.7 338.5 11.8 330 8
2006-03-29 07:07:43 51°16.948 2°52.687 338.2 11.9 330 8.1
2006-03-29 07:07:48 51°16.962 2°52.673 338.3 12 329 8.3
2006-03-29 07:07:52 51°16.974 2°52.663 338.2 12 329 8.4
2006-03-29 07:07:58 51°16.991 2°52.647 338.3 12 330 8.5
2006-03-29 07:08:03 51°17.006 2°52.633 338.6 12 330 8.5
2006-03-29 07:08:07 51°17.018 2°52.624 339.6 12 332 8.6
2006-03-29 07:08:12 51°17.033 2°52.612 340.7 12 333 8.4
2006-03-29 07:08:17 51°17.048 2°52.6 342.2 12 333 8.2
2006-03-29 07:08:23 51°17.065 2°52.587 342.9 12 334 8.1
2006-03-29 07:08:28 51°17.08 2°52.576 343.5 11.8 335 8.1
2006-03-29 07:08:32 51°17.092 2°52.567 344.4 11.8 335 8.1
2006-03-29 07:08:37 51°17.107 2°52.556 344.2 11.7 334 8.2
2006-03-29 07:08:42 51°17.121 2°52.543 343.1 11.9 332 8.1
2006-03-29 07:08:48 51°17.138 2°52.526 340.9 11.9 329 8.3
2006-03-29 07:08:53 51°17.151 2°52.51 338.8 12 328 8.4
2006-03-29 07:08:58 51°17.165 2°52.495 335.5 12 324 8.3
2006-03-29 07:09:02 51°17.175 2°52.482 333.8 12.1 322 8.6
2006-03-29 07:09:07 51°17.188 2°52.465 333.1 12 322 8.4
2006-03-29 07:09:13 51°17.205 2°52.446 332.4 12.1 323 8.5
2006-03-29 07:09:17 51°17.215 2°52.433 333.1 12.1 324 8.4
2006-03-29 07:09:22 51°17.229 2°52.418 333.6 12.1 324 8.5
2006-03-29 07:09:28 51°17.246 2°52.399 333.9 12.1 325 8.7
2006-03-29 07:09:33 51°17.259 2°52.384 334.7 12.1 325 8.7
2006-03-29 07:09:38 51°17.273 2°52.368 335 12.1 324 8.9
2006-03-29 07:09:43 51°17.287 2°52.352 334.7 12.1 324 8.9
2006-03-29 07:09:48 51°17.3 2°52.335 333.8 12.2 321 8.9
2006-03-29 07:09:52 51°17.31 2°52.32 331 12.3 318 8.9
2006-03-29 07:09:58 51°17.324 2°52.297 328.3 12.3 316 8.9
2006-03-29 07:10:02 51°17.333 2°52.281 325.7 12.3 313 9
2006-03-29 07:10:07 51°17.344 2°52.261 323.7 12.3 312 9.1
2006-03-29 07:10:12 51°17.355 2°52.241 322.5 12.3 311 9
2006-03-29 07:10:18 51°17.369 2°52.215 321.5 12.4 310 9.1
2006-03-29 07:10:23 51°17.379 2°52.194 320.2 12.4 309 9.1
2006-03-29 07:10:28 51°17.39 2°52.172 319.1 12.4 307 9
2006-03-29 07:10:32 51°17.398 2°52.154 317.9 12.4 306 9.1
2006-03-29 07:10:37 51°17.407 2°52.131 316.8 12.4 305 9.1
2006-03-29 07:10:43 51°17.419 2°52.103 315.4 12.5 303 9
2006-03-29 07:10:48 51°17.427 2°52.08 313.6 12.5 301 9
2006-03-29 07:10:53 51°17.436 2°52.055 311.7 12.5 301 9
2006-03-29 07:10:58 51°17.444 2°52.031 310.5 12.6 299 9
2006-03-29 07:11:02 51°17.451 2°52.011 309.5 12.6 299 9
2006-03-29 07:11:08 51°17.461 2°51.982 309.2 12.6 299 9.1
2006-03-29 07:11:13 51°17.469 2°51.958 309.2 12.6 299 9.1
2006-03-29 07:11:18 51°17.478 2°51.933 309.3 12.6 299 9.1
2006-03-29 07:11:22 51°17.484 2°51.913 309.1 12.6 298 9
2006-03-29 07:11:28 51°17.495 2°51.884 308.7 12.6 298 9
2006-03-29 07:11:33 51°17.503 2°51.86 309 12.6 299 9.1
2006-03-29 07:11:38 51°17.512 2°51.836 309.4 12.6 299 9.1
2006-03-29 07:11:42 51°17.519 2°51.817 309.9 12.5 300 8.8
2006-03-29 07:11:47 51°17.528 2°51.793 310.3 12.5 301 9
2006-03-29 07:11:52 51°17.537 2°51.77 311.3 12.5 302 8.9
2006-03-29 07:11:58 51°17.548 2°51.741 311.7 12.4 302 8.8
2006-03-29 07:12:02 51°17.555 2°51.723 312 12.5 301 8.7
2006-03-29 07:12:07 51°17.564 2°51.699 312.2 12.4 301 8.7
2006-03-29 07:12:12 51°17.573 2°51.676 311.9 12.4 301 8.6
2006-03-29 07:12:18 51°17.583 2°51.647 311.3 12.5 300 8.6
2006-03-29 07:12:23 51°17.591 2°51.623 310.3 12.5 299 8.5
2006-03-29 07:12:28 51°17.6 2°51.599 309.9 12.5 299 8.5
2006-03-29 07:12:33 51°17.608 2°51.575 309.1 12.4 298 8.5
2006-03-29 07:12:36 51°17.613 2°51.56 308.7 12.4 298 8.5
2006-03-29 07:12:43 51°17.624 2°51.526 308.4 12.4 298 8.3
2006-03-29 07:12:48 51°17.632 2°51.502 308.1 12.5 298 8.4
2006-03-29 07:12:53 51°17.641 2°51.479 308.8 12.4 299 8.3
2006-03-29 07:12:56 51°17.646 2°51.465 309.8 12.3 301 8.4
2006-03-29 07:13:03 51°17.658 2°51.432 310.7 12.4 301 8.4
2006-03-29 07:13:08 51°17.667 2°51.408 311.3 12.4 301 8.4
2006-03-29 07:13:13 51°17.676 2°51.385 311.9 12.4 301 8.5
2006-03-29 07:13:16 51°17.682 2°51.371 312 12.4 302 8.5
2006-03-29 07:13:22 51°17.693 2°51.343 312.3 12.4 302 8.5
2006-03-29 07:13:28 51°17.703 2°51.315 312 12.4 302 8.5
2006-03-29 07:13:32 51°17.71 2°51.296 311.8 12.4 301 8.5
2006-03-29 07:13:37 51°17.719 2°51.272 311.6 12.5 300 8.7
2006-03-29 07:13:43 51°17.729 2°51.243 310.6 12.5 299 8.7
2006-03-29 07:13:48 51°17.738 2°51.218 310.1 12.5 299 8.7
2006-03-29 07:13:52 51°17.744 2°51.199 309.7 12.6 299 8.9
2006-03-29 07:13:58 51°17.754 2°51.169 309.2 12.6 298 8.9
2006-03-29 07:14:03 51°17.762 2°51.144 309 12.6 298 9
2006-03-29 07:14:08 51°17.771 2°51.12 308.5 12.6 298 9
2006-03-29 07:14:13 51°17.779 2°51.095 309.1 12.6 299 9.2
2006-03-29 07:14:18 51°17.788 2°51.071 309.4 12.7 298 9.2
2006-03-29 07:14:23 51°17.796 2°51.045 309.4 12.7 298 9.4
2006-03-29 07:14:28 51°17.804 2°51.02 309.3 12.7 298 9.5
2006-03-29 07:14:32 51°17.81 2°51 308.4 12.8 297 9.6
2006-03-29 07:14:38 51°17.82 2°50.969 307.9 12.8 297 9.8
2006-03-29 07:14:43 51°17.828 2°50.944 308.2 12.9 297 9.9
2006-03-29 07:14:48 51°17.836 2°50.919 308.2 12.8 297 10.1
2006-03-29 07:14:52 51°17.843 2°50.898 308.4 12.9 297 10.2
2006-03-29 07:14:58 51°17.853 2°50.868 308.7 12.9 297 10.4
2006-03-29 07:15:03 51°17.861 2°50.843 308.5 12.9 297 10.5
2006-03-29 07:15:07 51°17.868 2°50.822 308.6 12.9 297 10.6
2006-03-29 07:15:12 51°17.876 2°50.797 308.1 13 296 10.7
2006-03-29 07:15:17 51°17.883 2°50.771 307.9 12.9 297 10.8
2006-03-29 07:15:22 51°17.892 2°50.746 307.9 12.9 297 10.9
2006-03-29 07:15:28 51°17.901 2°50.715 308 12.9 297 11
2006-03-29 07:15:33 51°17.909 2°50.689 307.8 12.9 296 11.2
2006-03-29 07:15:36 51°17.913 2°50.673 307.2 12.9 295 11.2
2006-03-29 07:15:43 51°17.924 2°50.637 306.8 13 295 11.3
2006-03-29 07:15:48 51°17.932 2°50.611 306.7 13 295 11.3
2006-03-29 07:15:53 51°17.94 2°50.585 306.4 13 295 11.3
2006-03-29 07:15:58 51°17.947 2°50.559 306.4 13 295 11.4
2006-03-29 07:16:03 51°17.954 2°50.532 306.6 12.9 296 11.5
2006-03-29 07:16:08 51°17.962 2°50.507 306.5 12.9 296 11.5
2006-03-29 07:16:13 51°17.97 2°50.481 307 12.9 296 11.6
2006-03-29 07:16:18 51°17.977 2°50.455 307 13 295 11.7
2006-03-29 07:16:23 51°17.985 2°50.429 307 12.9 296 11.6
2006-03-29 07:16:28 51°17.993 2°50.403 307 12.9 296 11.8
2006-03-29 07:16:33 51°18.001 2°50.377 307.3 13 296 11.8
2006-03-29 07:16:38 51°18.009 2°50.352 307.7 13 296 12
2006-03-29 07:16:43 51°18.017 2°50.326 307.7 13.1 296 12.1
2006-03-29 07:16:48 51°18.025 2°50.3 307.6 13 295 12.1
2006-03-29 07:16:53 51°18.032 2°50.274 306.6 13.1 295 12.2
2006-03-29 07:16:58 51°18.04 2°50.247 306.8 13 295 12.3
2006-03-29 07:17:03 51°18.047 2°50.221 306.5 13 295 12.3
2006-03-29 07:17:08 51°18.055 2°50.195 306.3 13.1 295 12.4
2006-03-29 07:17:12 51°18.061 2°50.174 306.3 13.1 295 12.5
2006-03-29 07:17:18 51°18.07 2°50.142 306.1 13.1 295 12.5
2006-03-29 07:17:23 51°18.078 2°50.116 306.2 13.1 295 12.6
2006-03-29 07:17:28 51°18.086 2°50.09 306.3 13.1 295 12.7
2006-03-29 07:17:33 51°18.094 2°50.064 306.6 13.1 296 12.7
2006-03-29 07:17:38 51°18.102 2°50.039 307.4 13.1 296 12.7
2006-03-29 07:17:42 51°18.109 2°50.018 309.1 13 299 12.7
2006-03-29 07:17:48 51°18.12 2°49.989 310.9 13 300 12.7
2006-03-29 07:17:53 51°18.129 2°49.964 311.9 12.9 301 12.7
2006-03-29 07:17:58 51°18.139 2°49.94 312.8 12.9 301 12.7
2006-03-29 07:18:02 51°18.146 2°49.92 313.3 13 301 12.8
2006-03-29 07:18:08 51°18.158 2°49.891 313.3 12.9 301 12.7
2006-03-29 07:18:13 51°18.167 2°49.866 313.4 12.9 301 12.7
2006-03-29 07:18:18 51°18.176 2°49.842 313.1 13 301 12.7
2006-03-29 07:18:22 51°18.184 2°49.822 313 13 301 12.6
2006-03-29 07:18:28 51°18.195 2°49.793 313.2 13 301 12.6
2006-03-29 07:18:33 51°18.204 2°49.768 312.9 13 301 12.5
2006-03-29 07:18:38 51°18.213 2°49.743 312.7 13 300 12.5
2006-03-29 07:18:43 51°18.222 2°49.718 312.5 13 301 12.6
2006-03-29 07:18:47 51°18.23 2°49.698 312.4 13 300 12.4
2006-03-29 07:18:52 51°18.239 2°49.673 312.5 13.1 300 12.3
2006-03-29 07:18:58 51°18.25 2°49.644 312.5 13 301 12.2
2006-03-29 07:19:03 51°18.259 2°49.619 312.8 13 301 12.1
2006-03-29 07:19:08 51°18.268 2°49.595 313.1 13 302 12.1
2006-03-29 07:19:13 51°18.278 2°49.57 313.4 13 301 12
2006-03-29 07:19:18 51°18.287 2°49.545 313.5 13 301 11.8
2006-03-29 07:19:23 51°18.296 2°49.52 312.9 13 300 11.5
2006-03-29 07:19:27 51°18.303 2°49.5 311.7 13 300 11.1
2006-03-29 07:19:32 51°18.311 2°49.475 311.1 13.1 299 11
2006-03-29 07:19:36 51°18.318 2°49.455 310.6 13 299 10.5
2006-03-29 07:19:42 51°18.329 2°49.425 310.6 12.9 299 10
2006-03-29 07:19:48 51°18.339 2°49.395 310.6 12.9 299 10.2
2006-03-29 07:19:52 51°18.346 2°49.375 310.7 12.9 299 10.3
2006-03-29 07:19:58 51°18.357 2°49.344 310.9 12.9 299 10.3
2006-03-29 07:20:02 51°18.364 2°49.324 310.6 13 299 10.3
2006-03-29 07:20:08 51°18.374 2°49.294 310.3 13 299 10.1
2006-03-29 07:20:13 51°18.383 2°49.268 309.8 13.1 298 9.7
2006-03-29 07:20:18 51°18.391 2°49.242 309.4 13.1 298 9.7
2006-03-29 07:20:22 51°18.397 2°49.221 307.7 13.1 295 9.5
2006-03-29 07:20:28 51°18.406 2°49.19 306.1 13.1 295 9.3
2006-03-29 07:20:33 51°18.412 2°49.163 304.9 13.1 294 9.2
2006-03-29 07:20:38 51°18.42 2°49.136 303.9 13.1 293 9.1
2006-03-29 07:20:43 51°18.427 2°49.11 303.1 13 293 9
2006-03-29 07:20:48 51°18.433 2°49.083 302.6 13 293 9.2
2006-03-29 07:20:53 51°18.44 2°49.056 302.1 13.1 292 9.3
2006-03-29 07:20:58 51°18.447 2°49.029 301.8 13.1 292 9.4
2006-03-29 07:21:03 51°18.454 2°49.002 301.9 13.1 293 9.4
2006-03-29 07:21:08 51°18.461 2°48.975 302 13.1 293 9.5
2006-03-29 07:21:13 51°18.469 2°48.949 302.4 13.1 293 9.5
2006-03-29 07:21:18 51°18.476 2°48.922 303.2 13.2 294 9.5
2006-03-29 07:21:22 51°18.482 2°48.901 303.7 13 294 9.2
2006-03-29 07:21:28 51°18.491 2°48.87 304.1 13.1 294 8.8
2006-03-29 07:21:32 51°18.498 2°48.849 304.7 13 295 8.7
2006-03-29 07:21:38 51°18.507 2°48.818 304.8 13 295 9.1
2006-03-29 07:21:43 51°18.514 2°48.792 305.4 13 295 9.4
2006-03-29 07:21:48 51°18.522 2°48.765 305.1 13.1 295 9.6
2006-03-29 07:21:52 51°18.528 2°48.744 304.5 13.2 294 9.7
2006-03-29 07:21:58 51°18.537 2°48.712 303.4 13.2 294 10
2006-03-29 07:22:03 51°18.543 2°48.685 303.1 13.2 293 9.9
2006-03-29 07:22:08 51°18.551 2°48.658 302.7 13.2 293 9.7
2006-03-29 07:22:12 51°18.556 2°48.637 302.3 13.2 292 9.6
2006-03-29 07:22:18 51°18.565 2°48.605 302.1 13.2 292 9.7
2006-03-29 07:22:22 51°18.571 2°48.583 302.5 13.1 293 9.2
2006-03-29 07:22:28 51°18.58 2°48.552 303 13.1 294 10.2
2006-03-29 07:22:33 51°18.587 2°48.525 303.6 13.2 294 10.1
2006-03-29 07:22:38 51°18.595 2°48.499 304.6 13.2 295 10.5
2006-03-29 07:22:43 51°18.603 2°48.472 304.9 13.2 295 10.8
2006-03-29 07:22:48 51°18.611 2°48.445 305.1 13.3 295 11.2
2006-03-29 07:22:52 51°18.617 2°48.424 304.8 13.3 295 11.4
2006-03-29 07:22:56 51°18.623 2°48.402 304.4 13.3 294 11.2
2006-03-29 07:23:02 51°18.632 2°48.37 303.8 13.3 293 11.2
2006-03-29 07:23:07 51°18.639 2°48.343 303.4 13.3 293 11.4
2006-03-29 07:23:12 51°18.647 2°48.316 303.2 13.3 293 11.7
2006-03-29 07:23:18 51°18.655 2°48.283 303.3 13.3 293 12
2006-03-29 07:23:23 51°18.663 2°48.257 303 13.3 293 12.3
2006-03-29 07:23:28 51°18.67 2°48.229 302.9 13.3 293 12.5
2006-03-29 07:23:32 51°18.676 2°48.208 303 13.2 293 12.7
2006-03-29 07:23:38 51°18.684 2°48.175 303.3 13.3 293 12.7
2006-03-29 07:23:43 51°18.692 2°48.148 303.4 13.4 293 12.9
2006-03-29 07:23:48 51°18.699 2°48.12 303.5 13.4 293 13
2006-03-29 07:23:53 51°18.706 2°48.093 303.3 13.4 292 13
2006-03-29 07:23:58 51°18.713 2°48.066 303.2 13.3 293 13.2
2006-03-29 07:24:03 51°18.72 2°48.039 303.3 13.3 293 13.3
2006-03-29 07:24:08 51°18.728 2°48.011 303.5 13.4 293 13.5
2006-03-29 07:24:12 51°18.733 2°47.989 303.5 13.3 293 13.6
2006-03-29 07:24:17 51°18.741 2°47.962 303.6 13.4 293 13.9
2006-03-29 07:24:23 51°18.749 2°47.93 303.7 13.4 293 14
2006-03-29 07:24:28 51°18.756 2°47.902 303.7 13.4 293 14.1
2006-03-29 07:24:33 51°18.763 2°47.874 303.6 13.4 293 14.3
2006-03-29 07:24:38 51°18.77 2°47.847 303.5 13.4 292 14.4
2006-03-29 07:24:42 51°18.775 2°47.825 303 13.4 291 14.6
2006-03-29 07:24:48 51°18.783 2°47.79 302.7 13.4 291 14.8
2006-03-29 07:24:53 51°18.789 2°47.763 301.7 13.5 289 14.9
2006-03-29 07:24:58 51°18.795 2°47.735 301.5 13.4 289 15
2006-03-29 07:25:03 51°18.801 2°47.707 301.8 13.5 289 15.3
2006-03-29 07:25:08 51°18.808 2°47.679 302.3 13.5 289 15.4
2006-03-29 07:25:12 51°18.813 2°47.656 302.8 13.4 290 15.5
2006-03-29 07:25:18 51°18.82 2°47.623 303.2 13.4 290 15.9
2006-03-29 07:25:23 51°18.827 2°47.595 303.4 13.4 290 16
2006-03-29 07:25:28 51°18.833 2°47.567 303.5 13.4 291 16.4
2006-03-29 07:25:33 51°18.84 2°47.54 303.9 13.3 292 16.8
2006-03-29 07:25:38 51°18.847 2°47.512 304.5 13.3 292 17.1
2006-03-29 07:25:42 51°18.853 2°47.49 304.6 13.3 291 16.5
2006-03-29 07:25:48 51°18.86 2°47.456 304.6 13.4 292 17
2006-03-29 07:25:52 51°18.866 2°47.434 304.1 13.5 291 17.4
2006-03-29 07:25:58 51°18.874 2°47.401 303.9 13.6 291 17.6
2006-03-29 07:26:02 51°18.879 2°47.378 303.7 13.5 291 17.6
2006-03-29 07:26:07 51°18.886 2°47.35 303.6 13.5 291 17.8
2006-03-29 07:26:12 51°18.893 2°47.322 304 13.6 291 17.6
2006-03-29 07:26:18 51°18.901 2°47.289 304.1 13.6 291 17.9
2006-03-29 07:26:23 51°18.908 2°47.261 304.1 13.5 292 18
2006-03-29 07:26:28 51°18.915 2°47.233 304 13.5 291 18.1
2006-03-29 07:26:32 51°18.92 2°47.21 304 13.5 291 18.3
2006-03-29 07:26:36 51°18.925 2°47.188 304 13.6 291 18.4
2006-03-29 07:26:43 51°18.935 2°47.148 303.9 13.6 290 18.5
2006-03-29 07:26:48 51°18.941 2°47.12 303.6 13.6 291 18.8
2006-03-29 07:26:53 51°18.948 2°47.092 303.5 13.7 291 19
2006-03-29 07:26:58 51°18.954 2°47.063 303.6 13.6 291 19.1
2006-03-29 07:27:02 51°18.96 2°47.041 303.4 13.6 291 19.1
2006-03-29 07:27:08 51°18.968 2°47.007 303.6 13.6 291 19.1
2006-03-29 07:27:13 51°18.975 2°46.979 303.4 13.7 290 19.4
2006-03-29 07:27:18 51°18.981 2°46.95 303.4 13.6 291 19.4
2006-03-29 07:27:23 51°18.988 2°46.922 303.4 13.7 291 19.6
2006-03-29 07:27:28 51°18.994 2°46.894 303.3 13.7 291 19.7
2006-03-29 07:27:33 51°19.001 2°46.865 303.2 13.7 290 19.7
2006-03-29 07:27:38 51°19.008 2°46.837 303.1 13.7 291 19.9
2006-03-29 07:27:43 51°19.014 2°46.809 303 13.7 291 20
2006-03-29 07:27:48 51°19.021 2°46.78 303 13.7 290 20
2006-03-29 07:27:53 51°19.028 2°46.752 303.1 13.7 291 19.9
2006-03-29 07:27:58 51°19.035 2°46.724 303.3 13.7 291 20
2006-03-29 07:28:03 51°19.042 2°46.696 303.8 13.7 292 20
2006-03-29 07:28:07 51°19.047 2°46.673 303.8 13.7 292 20
2006-03-29 07:28:12 51°19.055 2°46.645 304 13.7 292 20
2006-03-29 07:28:18 51°19.063 2°46.611 303.6 13.6 291 20.1
2006-03-29 07:28:22 51°19.068 2°46.589 303.5 13.7 291 20.1
2006-03-29 07:28:28 51°19.076 2°46.554 303.2 13.7 291 20.2
2006-03-29 07:28:32 51°19.082 2°46.532 303.2 13.7 291 20.2
2006-03-29 07:28:36 51°19.087 2°46.509 303.1 13.7 291 20.1
2006-03-29 07:28:43 51°19.097 2°46.47 303.2 13.7 291 20.2
2006-03-29 07:28:48 51°19.104 2°46.442 303.3 13.6 291 20.3
2006-03-29 07:28:53 51°19.11 2°46.413 303.4 13.7 291 20.5
2006-03-29 07:28:58 51°19.117 2°46.385 303.2 13.7 291 20.4
2006-03-29 07:29:03 51°19.124 2°46.357 303.2 13.7 291 20.4
2006-03-29 07:29:08 51°19.131 2°46.328 303.1 13.7 291 20.3
2006-03-29 07:29:13 51°19.138 2°46.3 303.4 13.7 291 20.2
2006-03-29 07:29:17 51°19.143 2°46.278 303.6 13.7 292 20.2
2006-03-29 07:29:22 51°19.15 2°46.249 303.4 13.7 291 19.8
2006-03-29 07:29:28 51°19.158 2°46.215 303.2 13.7 291 18.9
2006-03-29 07:29:32 51°19.163 2°46.192 303.3 13.8 291 19.7
2006-03-29 07:29:37 51°19.17 2°46.164 302.6 13.7 291 19.6
2006-03-29 07:29:42 51°19.177 2°46.136 302.6 13.7 291 19.6
2006-03-29 07:29:47 51°19.184 2°46.108 303.1 13.6 292 18.9
2006-03-29 07:29:53 51°19.193 2°46.074 303.6 13.6 292 18.4
2006-03-29 07:29:58 51°19.199 2°46.046 304 13.7 292 18.3
2006-03-29 07:30:03 51°19.206 2°46.018 303.8 13.6 292 18.1
2006-03-29 07:30:08 51°19.213 2°45.99 303.8 13.7 291 17.2
2006-03-29 07:30:12 51°19.218 2°45.967 303.5 13.6 291 17.3
2006-03-29 07:30:18 51°19.227 2°45.933 302.9 13.7 291 17.9
2006-03-29 07:30:23 51°19.233 2°45.905 302.6 13.7 291 17.5
2006-03-29 07:30:27 51°19.239 2°45.883 302.6 13.6 291 16.5
2006-03-29 07:30:32 51°19.246 2°45.854 302.8 13.6 291 15.7
2006-03-29 07:30:38 51°19.254 2°45.821 303 13.6 291 16.8
2006-03-29 07:30:43 51°19.261 2°45.793 303.2 13.6 292 16.2
2006-03-29 07:30:47 51°19.266 2°45.77 303.4 13.6 292 15.7
2006-03-29 07:30:52 51°19.273 2°45.742 303.5 13.7 292 14.3
2006-03-29 07:30:58 51°19.281 2°45.709 303.3 13.7 291 15.5
2006-03-29 07:31:03 51°19.288 2°45.681 303.1 13.6 292 14.3
2006-03-29 07:31:08 51°19.295 2°45.653 303.1 13.6 291 15.2
2006-03-29 07:31:12 51°19.301 2°45.63 302.9 13.6 292 14.4
2006-03-29 07:31:18 51°19.309 2°45.597 302.6 13.6 291 12.5
2006-03-29 07:31:23 51°19.316 2°45.569 302.7 13.6 292 14.4
2006-03-29 07:31:28 51°19.323 2°45.541 302.6 13.5 292 13.9
2006-03-29 07:31:32 51°19.329 2°45.518 302.8 13.6 293 12.7
2006-03-29 07:31:37 51°19.336 2°45.491 303.2 13.5 293 12.7
2006-03-29 07:31:42 51°19.343 2°45.463 303.5 13.5 292 12.6
2006-03-29 07:31:48 51°19.352 2°45.43 303.3 13.5 293 11.3
2006-03-29 07:31:52 51°19.358 2°45.408 303.3 13.5 293 11.6
2006-03-29 07:31:58 51°19.367 2°45.375 303.5 13.5 293 10.8
2006-03-29 07:32:03 51°19.374 2°45.348 303.7 13.4 294 10.4
2006-03-29 07:32:08 51°19.382 2°45.321 304.7 13.4 294 9.3
2006-03-29 07:32:13 51°19.39 2°45.294 305 13.4 294 11.1
2006-03-29 07:32:18 51°19.398 2°45.267 305.2 13.5 295 10.5
2006-03-29 07:32:23 51°19.406 2°45.24 305.9 13.5 296 9.7
2006-03-29 07:32:28 51°19.414 2°45.213 306 13.5 296 8.5
2006-03-29 07:32:33 51°19.422 2°45.187 306.2 13.4 296 11.1
2006-03-29 07:32:38 51°19.43 2°45.16 306.2 13.4 296 11.9
2006-03-29 07:32:43 51°19.438 2°45.133 306.3 13.7 296 10.4
2006-03-29 07:32:48 51°19.446 2°45.105 306.2 13.6 296 11.8
2006-03-29 07:32:52 51°19.453 2°45.083 305.2 13.7 294 13.2
2006-03-29 07:32:58 51°19.462 2°45.05 304.6 13.7 294 14.6
2006-03-29 07:33:02 51°19.468 2°45.027 304.1 13.8 295 14.9
2006-03-29 07:33:08 51°19.478 2°44.994 304.2 13.7 294 14.7
2006-03-29 07:33:12 51°19.484 2°44.972 304.8 13.7 295 15.5
2006-03-29 07:33:17 51°19.492 2°44.945 304.8 13.6 295 17.3
2006-03-29 07:33:23 51°19.502 2°44.912 304.9 13.7 295 18.5
2006-03-29 07:33:28 51°19.51 2°44.885 305.3 13.7 296 19.4
2006-03-29 07:33:32 51°19.516 2°44.863 305.7 13.7 295 19.7
2006-03-29 07:33:38 51°19.526 2°44.83 305.9 13.6 296 20
2006-03-29 07:33:42 51°19.533 2°44.808 305.8 13.7 296 20.3
2006-03-29 07:33:48 51°19.542 2°44.775 305.8 13.7 295 20.3
2006-03-29 07:33:52 51°19.549 2°44.753 305.1 13.7 295 20.5
2006-03-29 07:33:58 51°19.558 2°44.72 305 13.8 295 20.7
2006-03-29 07:34:02 51°19.565 2°44.698 304.9 13.8 295 20.8
2006-03-29 07:34:08 51°19.574 2°44.664 305.1 13.7 295 20.8
2006-03-29 07:34:12 51°19.581 2°44.642 305.2 13.8 295 21
2006-03-29 07:34:18 51°19.59 2°44.609 305.5 13.8 295 21
2006-03-29 07:34:23 51°19.598 2°44.581 305.5 13.8 295 20.9
2006-03-29 07:34:27 51°19.605 2°44.559 305.1 13.8 294 21.1
2006-03-29 07:34:32 51°19.613 2°44.531 304.9 13.8 295 21.3
2006-03-29 07:34:38 51°19.622 2°44.498 304.9 13.9 295 21.3
2006-03-29 07:34:43 51°19.63 2°44.47 305.1 13.8 295 21.5
2006-03-29 07:34:48 51°19.638 2°44.442 305.5 13.8 295 21.5
2006-03-29 07:34:52 51°19.645 2°44.42 305.5 13.8 295 21.6
2006-03-29 07:34:58 51°19.654 2°44.387 305.8 13.8 295 21.7
2006-03-29 07:35:03 51°19.662 2°44.359 305.5 13.8 294 21.9
2006-03-29 07:35:07 51°19.668 2°44.336 305 13.9 294 22.1
2006-03-29 07:35:12 51°19.676 2°44.308 305.2 13.9 294 22.2
2006-03-29 07:35:16 51°19.683 2°44.286 305.4 13.9 295 22.4
2006-03-29 07:35:23 51°19.694 2°44.247 305.5 13.9 295 22.6
2006-03-29 07:35:28 51°19.702 2°44.218 305.5 13.9 295 22.5
2006-03-29 07:35:32 51°19.708 2°44.196 305.7 13.9 295 22.8
2006-03-29 07:35:37 51°19.716 2°44.168 305.6 13.9 295 23
2006-03-29 07:35:43 51°19.726 2°44.134 305.5 13.9 294 23.1
2006-03-29 07:35:48 51°19.733 2°44.106 305.3 13.9 294 23.4
2006-03-29 07:35:53 51°19.742 2°44.078 305 13.9 294 23.5
2006-03-29 07:35:58 51°19.749 2°44.05 304.9 13.9 295 23.4
2006-03-29 07:36:03 51°19.757 2°44.022 305.4 13.8 295 23.3
2006-03-29 07:36:08 51°19.765 2°43.994 305.5 13.9 294 23.3
2006-03-29 07:36:12 51°19.772 2°43.971 305.2 14 294 23.3
2006-03-29 07:36:18 51°19.781 2°43.938 305.5 13.9 294 23.2
2006-03-29 07:36:22 51°19.788 2°43.915 305.4 13.9 294 23.5
2006-03-29 07:36:28 51°19.797 2°43.881 305.4 13.9 294 23.4
2006-03-29 07:36:32 51°19.803 2°43.859 305.2 14 294 23.6
2006-03-29 07:36:38 51°19.813 2°43.825 304.9 13.9 294 23.5
2006-03-29 07:36:43 51°19.82 2°43.797 304.8 13.9 294 23.2
2006-03-29 07:36:48 51°19.828 2°43.768 304.7 14 293 23.1
2006-03-29 07:36:53 51°19.836 2°43.74 304.2 13.9 294 23.1
2006-03-29 07:36:58 51°19.843 2°43.712 304 13.8 293 23.1
2006-03-29 07:37:03 51°19.851 2°43.684 304 13.9 293 23.2
2006-03-29 07:37:08 51°19.859 2°43.656 304.4 13.9 294 23.5
2006-03-29 07:37:13 51°19.866 2°43.628 304.7 13.8 294 23.7
2006-03-29 07:37:18 51°19.874 2°43.6 305 13.8 294 24.1
2006-03-29 07:37:23 51°19.882 2°43.572 305 13.8 294 24.4
2006-03-29 07:37:28 51°19.89 2°43.544 304.8 13.8 294 24.8
2006-03-29 07:37:33 51°19.898 2°43.516 304.6 13.8 294 25.1
2006-03-29 07:37:36 51°19.902 2°43.499 304.6 13.8 294 25.4
2006-03-29 07:37:43 51°19.914 2°43.46 305.3 13.8 295 25.5
2006-03-29 07:37:48 51°19.922 2°43.432 305.4 13.8 295 25.7
2006-03-29 07:37:53 51°19.93 2°43.404 305.4 13.8 295 25.7
2006-03-29 07:37:58 51°19.938 2°43.377 305.6 13.9 295 25.7
2006-03-29 07:38:03 51°19.946 2°43.349 305.7 13.8 295 25.4
2006-03-29 07:38:08 51°19.954 2°43.321 305.6 13.8 295 25.4
2006-03-29 07:38:12 51°19.961 2°43.299 305.2 13.8 294 25.2
2006-03-29 07:38:18 51°19.97 2°43.265 305 13.9 294 25.1
2006-03-29 07:38:23 51°19.977 2°43.237 304.6 13.9 292 25.2
2006-03-29 07:38:28 51°19.985 2°43.208 303.7 13.8 292 25.3
2006-03-29 07:38:32 51°19.991 2°43.186 303.6 13.8 293 25.3
2006-03-29 07:38:38 51°20 2°43.152 304.1 13.8 293 25.4
2006-03-29 07:38:42 51°20.006 2°43.13 304.3 13.8 294 25.5
2006-03-29 07:38:48 51°20.015 2°43.096 304.9 13.7 294 25.5
2006-03-29 07:38:53 51°20.023 2°43.069 305.5 13.8 294 25.3
2006-03-29 07:38:58 51°20.031 2°43.041 305.6 13.7 294 25.4
2006-03-29 07:39:03 51°20.039 2°43.013 305.1 13.7 294 25.2
2006-03-29 07:39:08 51°20.046 2°42.985 304.8 13.8 292 25.2
2006-03-29 07:39:13 51°20.053 2°42.957 303.7 13.8 293 25.1
2006-03-29 07:39:18 51°20.061 2°42.929 303.3 13.8 293 25.1
2006-03-29 07:39:22 51°20.066 2°42.906 303.2 13.8 292 24.4
2006-03-29 07:39:28 51°20.075 2°42.872 303 13.7 292 24.5
2006-03-29 07:39:32 51°20.081 2°42.85 303 13.7 293 24.6
2006-03-29 07:39:38 51°20.09 2°42.816 303.4 13.7 293 24.7
2006-03-29 07:39:43 51°20.097 2°42.788 303.4 13.7 292 24.5
2006-03-29 07:39:48 51°20.105 2°42.76 303.1 13.7 292 24.4
2006-03-29 07:39:52 51°20.11 2°42.738 303 13.8 292 24.2
2006-03-29 07:39:56 51°20.116 2°42.715 303 13.7 293 24.3
2006-03-29 07:40:02 51°20.125 2°42.681 303 13.7 293 24
2006-03-29 07:40:08 51°20.134 2°42.648 303.3 13.7 293 23.5
2006-03-29 07:40:12 51°20.14 2°42.625 303.7 13.8 293 22.4
2006-03-29 07:40:18 51°20.149 2°42.592 303.7 13.7 293 22.9
2006-03-29 07:40:23 51°20.156 2°42.564 303.3 13.8 292 23.4
2006-03-29 07:40:28 51°20.163 2°42.536 303 13.7 292 23.3
2006-03-29 07:40:33 51°20.171 2°42.507 302.5 13.8 292 23.2
2006-03-29 07:40:38 51°20.178 2°42.479 302.5 13.8 293 23.1
2006-03-29 07:40:42 51°20.184 2°42.456 302.5 13.8 292 22.3
2006-03-29 07:40:48 51°20.192 2°42.422 302.5 13.7 292 21.4
2006-03-29 07:40:53 51°20.199 2°42.394 302.5 13.8 292 21.8
2006-03-29 07:40:58 51°20.206 2°42.365 302.4 13.8 292 21.3
2006-03-29 07:41:03 51°20.213 2°42.337 301.8 13.8 290 21.3
2006-03-29 07:41:08 51°20.219 2°42.308 301.2 13.8 290 21.3
2006-03-29 07:41:13 51°20.225 2°42.278 299.9 13.9 289 21
2006-03-29 07:41:18 51°20.231 2°42.249 299.2 13.9 288 20.2
2006-03-29 07:41:23 51°20.237 2°42.22 299.2 13.9 288 19.6
2006-03-29 07:41:28 51°20.243 2°42.191 299.3 13.9 288 17.1
2006-03-29 07:41:33 51°20.249 2°42.161 299.7 13.9 289 17.3
2006-03-29 07:41:38 51°20.256 2°42.132 299.2 14 288 19.2
2006-03-29 07:41:42 51°20.261 2°42.109 299.7 14 289 19.6
2006-03-29 07:41:47 51°20.267 2°42.08 299.9 13.9 290 17.1
2006-03-29 07:41:52 51°20.273 2°42.051 300.4 13.9 289 17.6
2006-03-29 07:41:58 51°20.281 2°42.016 300.5 13.9 289 18
2006-03-29 07:42:03 51°20.287 2°41.986 300.2 13.9 289 18.2
2006-03-29 07:42:07 51°20.292 2°41.963 299.7 14 288 15.8
2006-03-29 07:42:12 51°20.298 2°41.933 298.9 14 288 16.5
2006-03-29 07:42:17 51°20.303 2°41.903 297.9 13.9 286 14.2
2006-03-29 07:42:23 51°20.309 2°41.868 297 13.9 286 16.7
2006-03-29 07:42:28 51°20.315 2°41.838 296.6 14 286 17.6
2006-03-29 07:42:32 51°20.319 2°41.815 296.7 14 287 17.9
2006-03-29 07:42:38 51°20.326 2°41.779 296.9 14 287 17.4
2006-03-29 07:42:43 51°20.332 2°41.75 297.2 13.9 288 17.3
2006-03-29 07:42:48 51°20.337 2°41.72 297.5 13.9 287 18.5
2006-03-29 07:42:52 51°20.342 2°41.697 297.4 13.9 287 19.7
2006-03-29 07:42:58 51°20.349 2°41.661 297.3 13.9 287 19.1
2006-03-29 07:43:03 51°20.355 2°41.632 297.5 13.8 288 19.6
2006-03-29 07:43:08 51°20.36 2°41.603 297.7 13.8 287 20.5
2006-03-29 07:43:13 51°20.366 2°41.574 297.6 13.8 287 20.6
2006-03-29 07:43:18 51°20.371 2°41.544 297.5 13.8 287 21
2006-03-29 07:43:23 51°20.377 2°41.515 297.4 13.8 287 20.3
2006-03-29 07:43:28 51°20.382 2°41.486 297.1 13.7 287 20
2006-03-29 07:43:33 51°20.388 2°41.457 297.5 13.7 288 19.1
2006-03-29 07:43:38 51°20.394 2°41.427 297.9 13.8 287 18.8
2006-03-29 07:43:42 51°20.398 2°41.404 297.5 13.8 287 19.3
2006-03-29 07:43:48 51°20.405 2°41.369 297.3 13.8 287 19.9
2006-03-29 07:43:53 51°20.411 2°41.34 297.1 13.8 287 20
2006-03-29 07:43:58 51°20.416 2°41.311 297.1 13.8 287 19.9
2006-03-29 07:44:03 51°20.422 2°41.282 297.3 13.8 288 20.5
2006-03-29 07:44:08 51°20.428 2°41.253 297.6 13.7 288 20.6
2006-03-29 07:44:12 51°20.433 2°41.23 297.8 13.8 288 21.4
2006-03-29 07:44:18 51°20.44 2°41.195 297.8 13.8 288 22.9
2006-03-29 07:44:23 51°20.445 2°41.165 297.6 13.8 288 23.9
2006-03-29 07:44:27 51°20.45 2°41.142 297.5 13.9 287 24.9
2006-03-29 07:44:32 51°20.455 2°41.113 297.2 13.8 287 25.9
2006-03-29 07:44:36 51°20.46 2°41.09 297 13.8 287 26.3
2006-03-29 07:44:43 51°20.467 2°41.048 297 13.8 286 26.8
2006-03-29 07:44:48 51°20.472 2°41.019 296.7 13.8 285 26.9
2006-03-29 07:44:53 51°20.476 2°40.989 295.4 13.9 283 27
2006-03-29 07:44:58 51°20.48 2°40.959 293.8 13.9 283 27.1
2006-03-29 07:45:03 51°20.484 2°40.928 292.7 13.9 282 27.1
2006-03-29 07:45:08 51°20.488 2°40.898 291.8 13.9 282 27.3
2006-03-29 07:45:13 51°20.492 2°40.868 291.4 13.9 281 27.3
2006-03-29 07:45:18 51°20.495 2°40.838 291.5 13.9 282 27.1
2006-03-29 07:45:23 51°20.499 2°40.807 291.2 13.9 281 27
2006-03-29 07:45:28 51°20.503 2°40.777 291.2 13.9 281 26.7
2006-03-29 07:45:33 51°20.506 2°40.746 291.3 14 281 26.7
2006-03-29 07:45:38 51°20.51 2°40.716 291 14 281 26.7
2006-03-29 07:45:43 51°20.514 2°40.686 290.8 14 281 26.7
2006-03-29 07:45:48 51°20.517 2°40.655 290.6 13.9 280 26.6
2006-03-29 07:45:53 51°20.52 2°40.625 290.1 14 280 26.3
2006-03-29 07:45:58 51°20.523 2°40.594 290.2 14 280 26.3
2006-03-29 07:46:03 51°20.527 2°40.563 289.8 14 279 26.5
2006-03-29 07:46:08 51°20.53 2°40.533 289.5 14 279 26.6
2006-03-29 07:46:13 51°20.533 2°40.502 289.7 14 280 26.6
2006-03-29 07:46:18 51°20.537 2°40.472 289.7 14 279 26.6
2006-03-29 07:46:23 51°20.54 2°40.441 290.3 14 280 26.7
2006-03-29 07:46:28 51°20.544 2°40.411 290.9 14 280 26.6
2006-03-29 07:46:33 51°20.547 2°40.381 291.2 14 281 26.4
2006-03-29 07:46:38 51°20.551 2°40.35 291.6 14 281 26.7
2006-03-29 07:46:43 51°20.555 2°40.32 291.8 13.9 282 26.6
2006-03-29 07:46:48 51°20.559 2°40.29 292 14 281 26.5
2006-03-29 07:46:53 51°20.563 2°40.259 291.7 14 281 26.3
2006-03-29 07:46:58 51°20.566 2°40.229 291.7 14 281 26.2
2006-03-29 07:47:03 51°20.57 2°40.199 291.7 14 281 26.2
2006-03-29 07:47:08 51°20.574 2°40.168 291.6 14 281 26.2
2006-03-29 07:47:12 51°20.576 2°40.143 291.1 14 280 26.2
2006-03-29 07:47:18 51°20.581 2°40.107 290.9 14.1 280 26.3
2006-03-29 07:47:23 51°20.584 2°40.076 291 14 280 26.1
2006-03-29 07:47:28 51°20.587 2°40.046 290.8 14.1 280 26
2006-03-29 07:47:32 51°20.59 2°40.021 290.5 14 280 25.7
2006-03-29 07:47:37 51°20.593 2°39.99 290.3 14 280 25.4
2006-03-29 07:47:43 51°20.597 2°39.954 290.3 14 280 24.9
2006-03-29 07:47:48 51°20.601 2°39.923 290.7 14 280 24.6
2006-03-29 07:47:53 51°20.604 2°39.892 290.9 14 280 24.6
2006-03-29 07:47:58 51°20.608 2°39.862 291 14 280 25.1
2006-03-29 07:48:03 51°20.611 2°39.832 291.1 14 280 25
2006-03-29 07:48:08 51°20.615 2°39.802 291.2 14 280 25
2006-03-29 07:48:13 51°20.619 2°39.771 291.6 13.9 281 24.7
2006-03-29 07:48:18 51°20.623 2°39.741 291.7 14 282 24.9
2006-03-29 07:48:23 51°20.627 2°39.711 292.1 14 281 24.9
2006-03-29 07:48:28 51°20.63 2°39.68 292.1 13.9 282 24.8
2006-03-29 07:48:33 51°20.634 2°39.65 291.9 13.9 281 24.9
2006-03-29 07:48:38 51°20.637 2°39.619 291.5 14 280 25.1
2006-03-29 07:48:43 51°20.641 2°39.589 290.7 14 280 25.1
2006-03-29 07:48:48 51°20.644 2°39.558 290.6 14 280 25
2006-03-29 07:48:52 51°20.647 2°39.534 290.7 13.9 281 24.9
2006-03-29 07:48:58 51°20.651 2°39.497 291 13.9 280 24.9
2006-03-29 07:49:03 51°20.655 2°39.467 291 14 281 24.8
2006-03-29 07:49:08 51°20.658 2°39.436 290.8 13.9 279 24.7
2006-03-29 07:49:13 51°20.661 2°39.405 290.2 14 279 24.7
2006-03-29 07:49:18 51°20.663 2°39.375 289.1 14 278 24.7
2006-03-29 07:49:23 51°20.666 2°39.344 288.1 14 278 24.5
2006-03-29 07:49:28 51°20.668 2°39.313 287.4 14 276 24.3
2006-03-29 07:49:32 51°20.669 2°39.289 286.4 14.1 276 24.6
2006-03-29 07:49:38 51°20.672 2°39.252 286.2 14.1 276 24.3
2006-03-29 07:49:43 51°20.674 2°39.221 286.6 14 276 24.3
2006-03-29 07:49:48 51°20.676 2°39.19 286.7 13.9 277 24.1
2006-03-29 07:49:52 51°20.679 2°39.166 286.9 13.9 277 24.1
2006-03-29 07:49:58 51°20.681 2°39.129 287.4 13.9 277 24.1
2006-03-29 07:50:03 51°20.684 2°39.099 287.4 13.9 277 24.1
2006-03-29 07:50:07 51°20.686 2°39.074 287 14 277 24.2
2006-03-29 07:50:12 51°20.688 2°39.043 287.2 13.9 277 24.2
2006-03-29 07:50:18 51°20.691 2°39.007 287.1 13.9 277 24.4
2006-03-29 07:50:22 51°20.692 2°38.982 287.4 13.8 276 24.5
2006-03-29 07:50:27 51°20.695 2°38.952 287.3 13.8 277 24.4
2006-03-29 07:50:32 51°20.697 2°38.921 287.3 13.9 277 24
2006-03-29 07:50:38 51°20.7 2°38.885 287.2 13.8 277 24.1
2006-03-29 07:50:43 51°20.702 2°38.854 287.2 13.9 277 23.9
2006-03-29 07:50:48 51°20.705 2°38.823 287.4 13.9 277 23.8
2006-03-29 07:50:53 51°20.707 2°38.792 287.2 13.9 277 23.9
2006-03-29 07:50:58 51°20.709 2°38.762 287 14 277 23.8
2006-03-29 07:51:03 51°20.711 2°38.731 286.9 13.9 276 23.7
2006-03-29 07:51:08 51°20.713 2°38.701 286.6 13.9 276 23.1
2006-03-29 07:51:12 51°20.715 2°38.676 286.7 13.9 276 22.8
2006-03-29 07:51:18 51°20.718 2°38.64 286.6 13.9 277 23.7
2006-03-29 07:51:23 51°20.72 2°38.609 287.3 13.8 277 23.7
2006-03-29 07:51:28 51°20.722 2°38.578 287.5 13.9 277 23
2006-03-29 07:51:32 51°20.724 2°38.554 287.4 14 277 22.3
2006-03-29 07:51:38 51°20.727 2°38.517 287.5 13.9 277 23.3
2006-03-29 07:51:43 51°20.73 2°38.486 287.4 13.9 277 23.6
2006-03-29 07:51:48 51°20.732 2°38.455 287.3 13.9 277 23.7
2006-03-29 07:51:52 51°20.734 2°38.431 287.4 13.9 277 23.7
2006-03-29 07:51:58 51°20.736 2°38.394 287.2 13.9 277 23.5
2006-03-29 07:52:03 51°20.739 2°38.363 287 14 276 23.1
2006-03-29 07:52:08 51°20.741 2°38.332 286.3 13.9 276 22.9
2006-03-29 07:52:13 51°20.742 2°38.301 286.2 14 276 22.3
2006-03-29 07:52:18 51°20.744 2°38.271 286 14 276 22.7
2006-03-29 07:52:22 51°20.746 2°38.246 286 14 276 22.3
2006-03-29 07:52:28 51°20.748 2°38.209 286 14 276 23.1
2006-03-29 07:52:32 51°20.75 2°38.185 285.9 14 276 22.9
2006-03-29 07:52:38 51°20.753 2°38.148 286.2 14 277 21.8
2006-03-29 07:52:43 51°20.755 2°38.117 286.4 14 276 22.8
2006-03-29 07:52:48 51°20.757 2°38.086 286.2 13.9 277 23
2006-03-29 07:52:53 51°20.759 2°38.055 286.4 13.9 277 22.4
2006-03-29 07:52:58 51°20.761 2°38.025 286.7 14 276 21.6
2006-03-29 07:53:03 51°20.763 2°37.993 286.5 13.9 276 23.2
2006-03-29 07:53:08 51°20.766 2°37.962 285.9 13.9 277 23.1
2006-03-29 07:53:12 51°20.768 2°37.938 286.3 14 277 22.9
2006-03-29 07:53:18 51°20.77 2°37.901 286.6 14 277 22.8
2006-03-29 07:53:23 51°20.772 2°37.87 286.9 14 277 21.9
2006-03-29 07:53:28 51°20.775 2°37.839 287.1 14 277 22.9
2006-03-29 07:53:33 51°20.777 2°37.808 287 14 277 23.6
2006-03-29 07:53:38 51°20.779 2°37.777 286.5 14.1 276 22.7
2006-03-29 07:53:43 51°20.78 2°37.746 286.1 14.1 276 22.4
2006-03-29 07:53:48 51°20.782 2°37.715 285.6 14.1 276 22.9
2006-03-29 07:53:53 51°20.784 2°37.684 285.5 14.1 275 22.8
2006-03-29 07:53:58 51°20.786 2°37.653 285.8 14.1 276 21.7
2006-03-29 07:54:03 51°20.788 2°37.622 285.7 14.2 276 23.2
2006-03-29 07:54:08 51°20.79 2°37.591 286.1 14.2 276 23.1
2006-03-29 07:54:13 51°20.792 2°37.56 286.1 14.1 276 23.3
2006-03-29 07:54:18 51°20.794 2°37.529 286.4 14.1 276 23.2
2006-03-29 07:54:23 51°20.796 2°37.498 286.2 14.1 276 23.1
2006-03-29 07:54:28 51°20.798 2°37.467 286.4 14.1 276 22.7
2006-03-29 07:54:33 51°20.8 2°37.436 286.3 14.1 276 22.1
2006-03-29 07:54:38 51°20.802 2°37.405 286.2 14.1 276 23.1
2006-03-29 07:54:43 51°20.804 2°37.374 286 14.2 275 23.5
2006-03-29 07:54:48 51°20.805 2°37.343 285.7 14.1 275 23.4
2006-03-29 07:54:53 51°20.807 2°37.312 285.4 14.1 275 23.2
2006-03-29 07:54:58 51°20.809 2°37.281 285.6 14.1 275 22.5
2006-03-29 07:55:03 51°20.811 2°37.25 285.9 14.1 276 22.8
2006-03-29 07:55:08 51°20.813 2°37.219 285.9 14.1 276 22.7
2006-03-29 07:55:13 51°20.815 2°37.188 286.3 14.1 276 23.2
2006-03-29 07:55:18 51°20.817 2°37.157 286.3 14.1 276 22.6
2006-03-29 07:55:23 51°20.819 2°37.125 286.1 14.1 276 22
2006-03-29 07:55:28 51°20.821 2°37.094 286 14.2 276 22
2006-03-29 07:55:33 51°20.824 2°37.063 286.6 14.2 277 22.1
2006-03-29 07:55:38 51°20.827 2°37.032 287.7 14.1 278 21.2
2006-03-29 07:55:42 51°20.829 2°37.007 288.6 14.2 278 21.9
2006-03-29 07:55:48 51°20.833 2°36.97 289.5 14.2 279 21.8
2006-03-29 07:55:52 51°20.836 2°36.945 290 14.2 279 20.6
2006-03-29 07:55:58 51°20.84 2°36.908 289.9 14.2 279 21.3
2006-03-29 07:56:03 51°20.844 2°36.877 290.6 14.2 281 22
2006-03-29 07:56:08 51°20.848 2°36.846 291.7 14.1 281 19.8
2006-03-29 07:56:12 51°20.851 2°36.822 293 14.1 283 21.4
2006-03-29 07:56:18 51°20.857 2°36.786 293.6 14.1 283 22
2006-03-29 07:56:23 51°20.861 2°36.756 294.5 14.1 283 22.3
2006-03-29 07:56:28 51°20.866 2°36.725 294.7 14.1 283 21
2006-03-29 07:56:32 51°20.87 2°36.701 294.6 14.1 284 22.1
2006-03-29 07:56:38 51°20.875 2°36.665 294.6 14.1 284 22.4
2006-03-29 07:56:42 51°20.879 2°36.641 295 14.1 284 21.3
2006-03-29 07:56:48 51°20.885 2°36.604 295.1 14.1 284 22.5
2006-03-29 07:56:53 51°20.89 2°36.574 295.3 14.1 284 22.5
2006-03-29 07:56:58 51°20.895 2°36.544 295.5 14.1 284 22.2
2006-03-29 07:57:03 51°20.899 2°36.514 295.4 14.1 284 22.4
2006-03-29 07:57:08 51°20.904 2°36.483 295.2 14 284 22.9
2006-03-29 07:57:13 51°20.909 2°36.453 295.1 14 284 23.6
2006-03-29 07:57:18 51°20.914 2°36.423 295.2 14.1 284 23.8
2006-03-29 07:57:23 51°20.918 2°36.392 295.3 14.1 283 22.6
2006-03-29 07:57:28 51°20.923 2°36.362 294.8 14.1 284 23
2006-03-29 07:57:32 51°20.927 2°36.338 294.6 14.2 283 23.8
2006-03-29 07:57:38 51°20.932 2°36.301 294.4 14.2 283 21.5
2006-03-29 07:57:43 51°20.936 2°36.27 294.4 14.2 283 23.1
2006-03-29 07:57:47 51°20.94 2°36.246 293.9 14.2 283 24.5
2006-03-29 07:57:52 51°20.944 2°36.215 293.9 14.2 283 25.4
2006-03-29 07:57:58 51°20.95 2°36.178 293.8 14.2 283 25.5
2006-03-29 07:58:03 51°20.954 2°36.148 294 14.1 283 24.2
2006-03-29 07:58:08 51°20.959 2°36.117 294 14.1 283 23.2
2006-03-29 07:58:12 51°20.962 2°36.093 294.3 14.2 283 24.9
2006-03-29 07:58:18 51°20.967 2°36.056 294.2 14.2 283 25.8
2006-03-29 07:58:23 51°20.972 2°36.026 294.3 14.2 283 26.8
2006-03-29 07:58:28 51°20.977 2°35.995 294.6 14.1 284 27.3
2006-03-29 07:58:33 51°20.981 2°35.964 294.9 14.1 283 27.4
2006-03-29 07:58:38 51°20.985 2°35.934 294.4 14.3 283 25.2
2006-03-29 07:58:43 51°20.989 2°35.903 294.4 14.1 283 22.9
2006-03-29 07:58:48 51°20.993 2°35.873 293.9 14.1 283 25.2
2006-03-29 07:58:52 51°20.996 2°35.848 292.9 14.2 281 27.3
2006-03-29 07:58:58 51°21.001 2°35.811 293.2 14.1 282 26.7
2006-03-29 07:59:03 51°21.006 2°35.78 293.7 14.2 282 27.1
2006-03-29 07:59:08 51°21.01 2°35.75 293.9 14.2 282 27.4
2006-03-29 07:59:13 51°21.014 2°35.718 294.3 14.2 282 28.5
2006-03-29 07:59:18 51°21.018 2°35.688 294.3 14.2 282 29.5
2006-03-29 07:59:23 51°21.023 2°35.657 294.2 14.2 283 29.1
2006-03-29 07:59:27 51°21.026 2°35.632 294.5 14.3 282 29.8
2006-03-29 07:59:32 51°21.03 2°35.601 294.6 14.2 282 26.8
2006-03-29 07:59:38 51°21.035 2°35.564 294 14.2 282 27.3
2006-03-29 07:59:43 51°21.039 2°35.533 293.6 14.3 282 29.5
2006-03-29 07:59:47 51°21.042 2°35.509 293.9 14.3 282 30.3
2006-03-29 07:59:52 51°21.047 2°35.478 294.1 14.2 282 29.9
2006-03-29 07:59:58 51°21.052 2°35.441 294.5 14.2 283 30.4
2006-03-29 08:00:03 51°21.057 2°35.41 294.6 14.3 283 30.3
2006-03-29 08:00:08 51°21.061 2°35.379 294.7 14.3 283 30.4
2006-03-29 08:00:12 51°21.064 2°35.354 294.1 14.4 282 30.4
2006-03-29 08:00:18 51°21.069 2°35.317 294.3 14.4 282 30.3
2006-03-29 08:00:23 51°21.074 2°35.286 294.4 14.3 282 30.1
2006-03-29 08:00:28 51°21.078 2°35.256 294.5 14.4 282 30.5
2006-03-29 08:00:33 51°21.082 2°35.225 293.9 14.4 282 29.3
2006-03-29 08:00:38 51°21.086 2°35.193 294.1 14.4 282 30.1
2006-03-29 08:00:43 51°21.091 2°35.163 294.4 14.2 282 30.1
2006-03-29 08:00:48 51°21.095 2°35.132 294.6 14.3 282 30.9
2006-03-29 08:00:52 51°21.098 2°35.107 294.6 14.3 282 31.1
2006-03-29 08:00:58 51°21.104 2°35.07 294.4 14.3 282 31.5
2006-03-29 08:01:03 51°21.108 2°35.039 295 14.3 283 31.4
2006-03-29 08:01:08 51°21.112 2°35.009 294.8 14.3 282 31.3
2006-03-29 08:01:13 51°21.116 2°34.977 294.6 14.2 283 31.6
2006-03-29 08:01:18 51°21.12 2°34.947 294.5 14.3 282 31.7
2006-03-29 08:01:23 51°21.124 2°34.915 294.1 14.3 282 31.2
2006-03-29 08:01:28 51°21.128 2°34.884 294.2 14.3 281 30.5
2006-03-29 08:01:33 51°21.132 2°34.853 293.8 14.3 282 30.4
2006-03-29 08:01:38 51°21.137 2°34.822 294.4 14.3 282 30.5
2006-03-29 08:01:43 51°21.141 2°34.791 294.6 14.3 282 30.5
2006-03-29 08:01:48 51°21.145 2°34.76 294.7 14.3 282 30.6
2006-03-29 08:01:53 51°21.15 2°34.729 294.7 14.3 282 30.9
2006-03-29 08:01:58 51°21.154 2°34.698 294.6 14.3 282 30.7
2006-03-29 08:02:03 51°21.158 2°34.667 294.3 14.3 282 30.2
2006-03-29 08:02:08 51°21.162 2°34.636 294.1 14.4 282 30.1
2006-03-29 08:02:12 51°21.165 2°34.611 294.3 14.4 283 30.1
2006-03-29 08:02:18 51°21.17 2°34.573 294.3 14.4 282 29.9
2006-03-29 08:02:23 51°21.175 2°34.542 294.2 14.4 283 30.1